Date,TemperatureHighF,TemperatureAvgF,TemperatureLowF,DewpointHighF,DewpointAvgF,DewpointLowF,HumidityHigh,HumidityAvg,HumidityLow,PressureMaxIn,PressureMinIn,WindSpeedMaxMPH,WindSpeedAvgMPH,GustSpeedMaxMPH,PrecipitationSumIn
2012-1-1,0.0,-1.8,-7.0,-5.0,-7.6,-13.0,78,76,73,0.00,40.00,3,1,7,0.00
2012-1-2,4.0,1.9,-2.0,-1.0,-3.1,-8.0,79,78,76,0.00,40.00,1,1,6,0.00
2012-1-3,4.0,-2.7,-12.0,-1.0,-8.1,-18.0,79,77,74,0.00,40.00,1,0,4,0.00
2012-1-4,3.0,-0.2,-2.0,-2.0,-5.5,-7.0,78,77,75,0.00,40.00,1,0,3,0.00
2012-1-5,25.0,8.9,-4.0,16.0,3.8,-10.0,85,80,76,0.00,40.00,5,2,12,0.00
2012-1-6,33.0,26.1,12.0,24.0,16.3,6.0,85,68,42,0.00,40.00,7,4,19,0.00
2012-1-7,11.0,7.1,1.0,6.0,1.4,-6.0,80,76,71,0.00,40.00,3,1,7,0.00
2012-1-8,34.0,15.4,4.0,25.0,7.1,-1.0,80,71,48,0.00,40.00,9,3,19,0.00
2012-1-9,7.0,0.6,-20.0,2.0,-5.1,-26.0,79,76,70,0.00,40.00,3,1,6,0.00
2012-1-10,17.0,6.9,-9.0,13.0,1.9,-15.0,85,79,75,0.00,40.00,2,1,5,0.00
2012-1-11,28.0,20.6,13.0,24.0,17.3,9.0,89,86,83,0.00,40.00,2,1,8,0.00
2012-1-12,24.0,16.8,10.0,21.0,13.0,6.0,89,85,82,0.00,40.00,2,1,6,0.00
2012-1-13,18.0,6.5,1.0,14.0,1.0,-7.0,84,77,72,0.00,40.00,4,2,10,0.00
2012-1-20,-24.0,-4.8,-24.0,-32.0,-86.3,-99.9,66,65,65,0.00,40.00,1,1,13,0.00
2012-1-21,-8.0,-14.9,-25.0,-14.0,-21.4,-32.0,73,71,68,0.00,40.00,1,0,26,0.00
2012-2-1,-200.0,0.0,200.0,-99.9,-99.9,-99.9,0,0,100,0.00,40.00,0,-999,0,0.00
2012-2-4,17.0,10.1,2.0,11.0,5.3,-2.0,83,80,77,0.00,40.00,2,2,8,0.00
2012-2-5,16.0,12.5,-1.0,8.0,5.0,-6.0,81,71,63,0.00,40.00,1,0,5,0.00
2012-2-6,28.0,18.2,7.0,15.0,11.2,3.0,84,74,57,0.00,40.00,1,0,4,0.00
2012-2-7,22.0,13.6,6.0,11.0,7.7,1.0,84,77,62,0.00,40.00,2,0,5,0.00
2012-2-8,30.0,18.7,9.0,17.0,12.2,5.0,83,75,59,0.00,40.00,1,0,4,0.00
2012-2-9,29.0,24.2,11.0,24.0,19.9,7.0,88,83,79,0.00,40.00,3,1,7,0.00
2012-2-10,40.0,26.2,10.0,25.0,17.7,6.0,87,72,36,0.00,40.00,5,2,19,0.00
2012-2-11,38.0,27.6,22.0,23.0,20.5,18.0,87,75,55,0.00,40.00,3,1,8,0.00
2012-2-12,41.0,32.5,17.0,20.0,17.2,14.0,89,54,39,0.00,40.00,6,4,14,0.00
2012-2-13,43.0,33.8,23.0,24.0,19.0,16.0,74,56,35,0.00,40.00,5,3,16,0.00
2012-2-14,42.0,31.0,11.0,24.0,17.1,7.0,82,58,33,0.00,40.00,7,3,16,0.07
2012-2-15,30.0,21.3,12.0,15.0,11.0,6.0,79,65,46,0.00,40.00,1,0,4,0.01
2012-2-16,37.0,22.7,9.0,19.0,14.4,5.0,87,71,47,0.00,40.00,3,1,6,0.00
2012-2-17,34.0,23.7,12.0,22.0,16.5,5.0,88,74,59,0.00,40.00,3,1,6,0.00
2012-2-18,33.0,13.7,-3.0,14.0,5.8,-8.0,84,72,46,0.00,40.00,2,1,5,0.00
2012-2-19,26.0,10.5,-15.0,4.0,-1.5,-21.0,80,60,35,0.00,40.00,1,1,10,0.00
2012-2-20,32.0,20.1,-10.0,13.0,7.0,-15.0,78,58,42,0.00,40.00,6,2,18,0.00
2012-2-21,25.0,17.6,8.0,19.0,11.9,3.0,88,78,69,0.00,40.00,2,0,4,0.00
2012-2-22,29.0,17.7,8.0,18.0,12.1,2.0,86,79,61,0.00,40.00,3,1,7,0.00
2012-2-23,29.0,14.3,2.0,18.0,7.8,-3.0,83,76,58,0.00,40.00,2,1,6,0.00
2012-2-24,23.0,12.4,0.0,10.0,4.5,-5.0,84,71,55,0.00,40.00,3,1,7,0.00
2012-2-25,20.0,8.3,0.0,0.0,-4.0,-9.0,75,58,36,0.00,40.00,2,1,6,0.00
2012-2-26,37.0,21.6,7.0,15.0,7.3,-2.0,73,56,36,0.00,40.00,6,3,18,0.00
2012-2-27,42.0,28.4,20.0,15.0,12.5,10.0,71,53,28,0.00,40.00,4,2,11,0.01
2012-2-28,34.0,20.0,6.0,13.0,7.6,0.0,84,61,38,0.00,40.00,4,2,9,0.01
2012-2-29,29.0,14.8,-3.0,5.0,0.6,-8.0,78,55,33,0.00,40.00,3,1,6,0.00
2012-3-1,19.0,12.4,-14.0,6.0,1.5,-20.0,77,62,50,0.00,40.00,3,1,7,0.00
2012-3-2,32.0,20.8,-2.0,10.0,7.6,-8.0,80,58,37,0.00,40.00,2,1,6,0.00
2012-3-3,30.0,20.4,11.0,17.0,11.3,6.0,86,68,50,0.00,40.00,2,1,6,0.00
2012-3-4,27.0,15.9,0.0,11.0,6.7,-4.0,84,68,49,0.00,40.00,2,1,6,0.00
2012-3-5,26.0,17.0,7.0,13.0,7.6,3.0,82,68,44,0.00,40.00,4,2,9,0.00
2012-3-6,30.0,19.4,1.0,20.0,13.7,-7.0,85,79,59,0.00,40.00,6,2,14,0.00
2012-3-7,32.0,8.5,-15.0,6.0,-4.6,-21.0,79,58,29,0.00,40.00,4,2,8,0.00
2012-3-8,13.0,7.3,-7.0,5.0,0.8,-13.0,81,74,64,0.00,40.00,2,0,5,0.00
2012-3-9,23.0,14.1,5.0,14.0,7.2,0.0,84,74,60,0.00,40.00,2,1,6,0.00
2012-3-10,25.0,15.5,4.0,11.0,6.4,-99.9,83,71,55,0.00,40.00,4,2,9,0.00
2012-3-11,21.0,12.4,-9.0,3.0,-0.3,-14.0,78,57,44,0.00,40.00,4,2,9,0.00
2012-3-12,24.0,14.5,-5.0,0.0,-2.9,-11.0,74,47,35,0.00,40.00,3,2,9,0.00
2012-3-13,28.0,9.8,-23.0,1.0,-6.6,-30.0,71,50,30,0.00,40.00,3,1,5,0.00
2012-3-14,36.0,13.4,-11.0,6.0,-2.7,-17.0,76,52,27,0.00,40.00,3,1,6,0.02
2012-3-15,31.0,13.6,-14.0,3.0,-3.3,-20.0,76,50,29,0.00,40.00,4,2,51,0.01
2012-3-16,31.0,15.8,-2.0,15.0,5.6,-8.0,74,64,48,0.00,40.00,2,0,6,0.00
2012-3-17,36.0,20.0,7.0,13.0,8.1,-0.0,82,62,38,0.00,40.00,3,1,8,0.00
2012-3-18,39.0,16.8,-8.0,11.0,2.1,-14.0,82,56,30,0.00,40.00,4,1,6,0.00
2012-3-19,39.0,18.4,-8.0,7.0,0.7,-13.0,79,51,25,0.00,40.00,3,1,9,0.00
2012-3-20,30.0,16.8,-8.0,6.0,-1.1,-99.9,77,51,34,0.00,40.00,4,2,11,0.00
2012-3-21,21.0,1.5,-10.0,-1.0,-8.4,-17.0,78,66,38,0.00,40.00,3,2,9,0.00
2012-3-23,37.0,22.9,-18.0,6.0,0.6,-24.0,74,40,23,0.00,40.00,6,2,13,0.00
2012-3-24,37.0,27.9,19.0,15.0,12.3,7.0,67,53,37,0.00,40.00,4,2,15,0.00
2012-3-25,38.0,27.0,12.0,22.0,15.7,8.0,86,64,42,0.00,40.00,3,1,7,0.00
2012-3-26,44.0,28.6,19.0,22.0,15.3,6.0,88,61,29,0.00,40.00,4,1,8,0.09
2012-3-27,45.0,27.6,4.0,13.0,8.7,-1.0,79,48,26,0.00,40.00,3,1,6,0.08
2012-3-28,53.0,30.4,10.0,21.0,13.6,5.0,81,55,25,0.00,40.00,4,2,9,0.22
2012-3-29,52.0,33.8,11.0,18.0,15.3,7.0,84,52,24,0.00,40.00,4,2,8,0.05
2012-3-30,47.0,28.3,10.0,19.0,13.6,6.0,83,58,30,0.00,40.00,3,1,5,0.01
2012-3-31,44.0,32.2,20.0,25.0,19.7,15.0,86,62,36,0.00,40.00,5,2,10,0.00
2012-4-1,45.0,29.6,13.0,22.0,15.4,10.0,86,58,32,0.00,40.00,3,1,7,0.01
2012-4-2,44.0,27.8,1.0,18.0,11.6,-3.0,84,54,33,0.00,40.00,5,2,15,0.01
2012-4-3,44.0,29.2,15.0,15.0,12.5,8.0,78,52,30,0.00,40.00,4,2,9,0.00
2012-4-4,47.0,25.3,3.0,16.0,8.8,-1.0,84,56,22,0.00,40.00,5,2,14,0.00
2012-4-5,52.0,34.9,24.0,20.0,15.9,13.0,77,49,25,0.00,40.00,3,1,7,0.00
2012-4-6,49.0,35.6,23.0,26.0,22.1,17.0,79,59,38,0.00,40.00,4,1,8,0.00
2012-4-7,41.0,34.7,30.0,33.0,28.8,25.0,87,79,63,0.00,40.00,2,1,5,0.01
2012-4-8,52.0,37.0,24.0,28.0,22.7,15.0,92,61,26,0.00,40.00,5,2,9,0.01
2012-4-9,51.0,33.3,14.0,18.0,15.0,10.0,85,52,26,0.00,40.00,4,2,8,0.00
2012-4-10,53.0,33.8,10.0,17.0,12.8,7.0,86,50,20,0.00,40.00,4,1,7,0.00
2012-4-11,56.0,36.5,19.0,18.0,16.9,15.0,83,51,22,0.00,40.00,4,1,9,0.00
2012-4-12,56.0,37.3,22.0,22.0,19.8,17.0,82,55,25,0.00,40.00,4,1,9,0.00
2012-4-13,54.0,37.3,22.0,28.0,22.7,18.0,87,60,31,0.00,40.00,3,1,7,0.00
2012-4-14,58.0,40.1,23.0,28.0,23.7,20.0,89,58,26,0.00,40.00,4,1,8,0.00
2012-4-15,59.0,40.7,26.0,27.0,23.6,22.0,86,55,24,0.00,40.00,4,1,8,0.00
2012-4-16,59.0,41.6,27.0,25.0,22.7,20.0,82,52,26,0.00,40.00,4,1,9,0.00
2012-4-17,56.0,42.7,23.0,26.0,23.7,19.0,85,51,29,0.00,40.00,5,2,9,0.00
2012-4-18,55.0,41.8,28.0,28.0,24.9,21.0,82,54,32,0.00,40.00,5,2,11,0.00
2012-4-19,56.0,41.0,27.0,31.0,25.1,22.0,86,57,28,0.00,40.00,5,2,9,0.00
2012-4-20,56.0,40.6,26.0,31.0,26.8,22.0,88,61,31,0.00,40.00,6,2,12,0.00
2012-4-21,54.0,42.4,26.0,31.0,23.9,17.0,83,53,24,0.00,40.00,6,2,14,0.00
2012-4-22,53.0,38.5,21.0,24.0,21.1,17.0,85,54,29,0.00,40.00,6,2,11,0.00
2012-4-23,53.0,38.8,27.0,30.0,25.4,20.0,87,61,37,0.00,40.00,4,1,11,0.00
2012-4-24,44.0,33.0,25.0,32.0,26.6,19.0,91,78,55,0.00,40.00,2,1,6,0.13
2012-4-25,54.0,38.2,19.0,28.0,21.6,16.0,92,58,26,0.00,40.00,12,5,25,0.01
2012-4-26,58.0,46.3,29.0,26.0,22.4,20.0,71,41,24,0.00,40.00,9,4,22,0.00
2012-4-27,51.0,39.3,30.0,33.0,27.1,21.0,77,62,43,0.00,40.00,3,1,11,0.00
2012-4-28,53.0,40.6,27.0,29.0,24.3,18.0,88,56,27,0.00,40.00,4,2,11,0.00
2012-4-29,53.0,39.1,27.0,31.0,24.1,20.0,78,57,34,0.00,40.00,6,2,13,0.00
2012-4-30,52.0,41.0,28.0,30.0,26.7,23.0,85,59,37,0.00,40.00,5,2,13,0.00
2012-5-1,54.0,39.6,27.0,35.0,28.0,23.0,92,66,30,0.00,40.00,7,2,14,0.33
2012-5-2,43.0,32.6,26.0,32.0,25.8,21.0,93,77,54,0.00,40.00,3,1,9,0.38
2012-5-3,51.0,37.1,25.0,30.0,24.2,19.0,93,64,34,0.00,40.00,5,1,11,0.39
2012-5-4,49.0,37.5,27.0,26.0,23.5,21.0,88,60,36,0.00,40.00,5,2,15,0.01
2012-5-5,52.0,38.8,22.0,24.0,20.8,17.0,90,54,26,0.00,40.00,5,2,10,0.01
2012-5-6,56.0,41.9,30.0,26.0,23.3,20.0,76,51,27,0.00,40.00,7,2,16,0.00
2012-5-7,57.0,41.0,24.0,25.0,22.3,19.0,81,51,24,0.00,40.00,5,2,13,0.00
2012-5-8,38.0,34.6,32.0,32.0,29.1,23.0,92,81,62,0.00,40.00,3,1,9,0.46
2012-5-9,45.0,37.9,28.0,31.0,27.6,21.0,93,69,39,0.00,40.00,5,2,11,0.14
2012-5-10,51.0,40.8,24.0,26.0,22.5,19.0,86,51,31,0.00,40.00,6,3,15,0.01
2012-5-11,55.0,42.7,27.0,27.0,22.6,18.0,77,48,25,0.00,40.00,7,3,17,0.00
2012-5-12,51.0,39.1,29.0,35.0,26.3,18.0,83,62,36,0.00,40.00,9,2,20,0.00
2012-5-13,52.0,40.7,26.0,25.0,19.9,16.0,77,46,25,0.00,40.00,8,3,22,0.00
2012-5-14,44.0,35.3,29.0,30.0,24.7,21.0,86,66,41,0.00,40.00,6,2,13,0.00
2012-5-15,54.0,40.1,29.0,31.0,27.8,22.0,93,66,33,0.00,40.00,5,2,14,0.20
2012-5-16,55.0,41.8,21.0,26.0,21.0,17.0,86,49,23,0.00,40.00,6,2,15,0.06
2012-5-17,61.0,44.6,23.0,23.0,21.0,17.0,80,44,21,0.00,40.00,5,2,11,0.00
2012-5-18,56.0,42.8,26.0,33.0,25.1,19.0,76,52,29,0.00,40.00,6,3,15,0.01
2012-5-19,53.0,42.6,32.0,37.0,28.9,25.0,92,62,34,0.00,40.00,5,2,13,0.01
2012-5-20,59.0,47.5,36.0,38.0,35.6,28.0,93,67,39,0.00,40.00,6,2,11,0.04
2012-5-21,66.0,49.4,26.0,34.0,29.5,22.0,86,51,27,0.00,40.00,7,3,20,0.01
2012-5-22,68.0,54.4,31.0,41.0,34.0,24.0,76,48,32,0.00,40.00,6,3,12,0.00
2012-5-23,71.0,53.2,30.0,39.0,34.5,25.0,83,53,29,0.00,40.00,5,2,11,0.00
2012-5-24,65.0,53.5,33.0,39.0,35.5,28.0,81,53,35,0.00,40.00,6,2,16,0.00
2012-5-25,56.0,49.4,40.0,42.0,37.5,32.0,92,66,44,0.00,40.00,3,1,10,0.01
2012-5-26,53.0,43.8,39.0,41.0,38.0,35.0,92,80,59,0.00,40.00,5,2,9,0.32
2012-5-27,56.0,45.5,38.0,39.0,37.0,34.0,93,74,44,0.00,40.00,4,2,10,0.16
2012-5-28,60.0,45.9,34.0,40.0,32.8,29.0,88,63,33,0.00,40.00,4,1,11,0.01
2012-5-29,59.0,48.6,29.0,35.0,29.7,26.0,88,52,32,0.00,40.00,6,2,17,0.00
2012-5-30,62.0,48.8,33.0,32.0,28.9,26.0,78,49,28,0.00,40.00,4,2,11,0.00
2012-5-31,58.0,47.8,36.0,33.0,28.1,23.0,77,50,29,0.00,40.00,6,2,15,0.00
2012-6-1,62.0,47.9,32.0,29.0,26.6,24.0,76,47,27,0.00,40.00,5,2,11,0.00
2012-6-2,57.0,46.6,31.0,42.0,33.8,25.0,91,63,40,0.00,40.00,4,2,10,0.06
2012-6-3,56.0,47.2,36.0,39.0,35.4,33.0,93,67,41,0.00,40.00,4,2,10,0.07
2012-6-4,61.0,51.1,39.0,38.0,35.7,34.0,84,58,38,0.00,40.00,4,2,9,0.00
2012-6-5,70.0,56.0,32.0,39.0,33.6,27.0,83,48,25,0.00,40.00,9,3,19,0.00
2012-6-6,64.0,54.5,45.0,46.0,38.6,34.0,91,58,35,0.00,40.00,6,3,13,0.08
2012-6-7,65.0,52.4,33.0,44.0,37.0,28.0,82,58,41,0.00,40.00,4,2,9,0.06
2012-6-8,57.0,48.9,44.0,50.0,43.6,39.0,93,82,68,0.00,40.00,3,1,9,0.26
2012-6-9,64.0,51.6,39.0,41.0,38.4,35.0,94,64,38,0.00,40.00,4,2,10,0.06
2012-6-10,60.0,52.7,35.0,44.0,38.7,31.0,85,60,45,0.00,40.00,3,1,8,0.00
2012-6-11,51.0,45.8,43.0,45.0,41.2,39.0,92,84,74,0.00,40.00,2,1,5,0.60
2012-6-12,51.0,45.1,38.0,43.0,39.8,36.0,94,83,62,0.00,40.00,3,1,6,0.28
2012-6-13,56.0,46.8,39.0,41.0,38.2,35.0,93,74,48,0.00,40.00,3,2,10,0.10
2012-6-14,58.0,48.8,39.0,42.0,37.1,32.0,94,67,39,0.00,40.00,4,1,9,0.05
2012-6-15,59.0,50.0,41.0,43.0,38.2,35.0,93,67,42,0.00,40.00,4,1,10,0.06
2012-6-16,58.0,47.7,34.0,45.0,36.5,31.0,88,67,42,0.00,40.00,4,2,9,0.01
2012-6-17,65.0,53.6,43.0,47.0,44.2,41.0,94,73,44,0.00,40.00,3,1,9,0.08
2012-6-18,73.0,56.8,42.0,50.0,44.0,40.0,92,65,34,0.00,40.00,3,1,9,0.02
2012-6-19,74.0,57.2,35.0,45.0,40.9,32.0,88,59,33,0.00,40.00,4,2,11,0.00
2012-6-20,67.0,54.8,37.0,47.0,42.9,35.0,95,67,46,0.00,40.00,4,2,9,0.03
2012-6-21,80.0,61.5,34.0,47.0,40.5,31.0,89,52,23,0.00,40.00,4,2,10,0.00
2012-6-22,83.0,63.9,38.0,46.0,40.7,33.0,83,48,22,0.00,40.00,4,2,10,0.00
2012-6-23,85.0,65.3,38.0,45.0,40.2,33.0,81,45,23,0.00,40.00,5,2,11,0.00
2012-6-24,75.0,58.4,36.0,50.0,38.8,31.0,89,52,26,0.00,40.00,6,2,14,0.01
2012-6-25,71.0,60.0,49.0,49.0,44.7,37.0,94,61,34,0.00,40.00,6,2,12,0.05
2012-6-26,59.0,52.8,46.0,46.0,42.6,37.0,93,70,48,0.00,40.00,4,2,10,0.09
2012-6-27,57.0,48.7,43.0,43.0,41.0,39.0,93,76,51,0.00,40.00,5,2,9,0.11
2012-6-28,66.0,51.2,32.0,45.0,37.8,30.0,92,64,32,0.00,40.00,5,2,13,0.01
2012-6-29,69.0,56.1,42.0,50.0,41.9,37.0,84,62,41,0.00,40.00,3,1,7,0.01
2012-6-30,54.0,50.2,45.0,46.0,42.9,40.0,84,76,65,0.00,40.00,4,1,7,0.01
2012-7-1,52.0,47.6,44.0,45.0,43.3,42.0,93,85,73,0.00,40.00,2,1,6,0.46
2012-7-2,62.0,51.8,42.0,44.0,42.1,40.0,94,72,50,0.00,40.00,4,1,9,0.04
2012-7-3,63.0,52.5,45.0,45.0,41.9,36.0,92,70,42,0.00,40.00,3,1,12,0.04
2012-7-4,59.0,51.8,41.0,40.0,36.8,34.0,85,59,40,0.00,40.00,4,2,9,0.02
2012-7-5,62.0,52.2,42.0,46.0,41.6,39.0,93,69,45,0.00,40.00,3,1,9,0.04
2012-7-6,68.0,55.0,37.0,46.0,38.4,34.0,89,58,33,0.00,40.00,4,2,9,0.01
2012-7-7,56.0,49.3,44.0,48.0,44.7,39.0,94,84,70,0.00,40.00,6,1,11,0.17
2012-7-8,60.0,48.9,28.0,39.0,33.5,26.0,93,60,31,0.00,40.00,6,2,14,0.01
2012-7-9,63.0,51.4,27.0,41.0,33.7,24.0,89,54,32,0.00,40.00,5,2,11,0.00
2012-7-10,51.0,45.9,43.0,42.0,39.4,36.0,93,78,57,0.00,40.00,4,2,9,0.39
2012-7-11,66.0,52.7,35.0,39.0,34.8,32.0,91,55,28,0.00,40.00,6,2,12,0.01
2012-7-12,62.0,51.5,40.0,48.0,40.8,36.0,91,68,40,0.00,40.00,2,1,6,0.01
2012-7-13,63.0,53.1,44.0,47.0,44.0,42.0,94,73,51,0.00,40.00,5,1,11,0.03
2012-7-14,70.0,58.3,44.0,44.0,41.2,29.0,87,56,31,0.00,40.00,6,2,16,0.00
2012-7-15,64.0,53.1,48.0,50.0,35.9,-99.9,82,58,44,0.00,40.00,5,2,11,0.02
2012-7-16,66.0,54.0,45.0,44.0,43.1,40.0,93,69,42,0.00,40.00,5,2,11,0.05
2012-7-17,73.0,58.5,43.0,46.0,43.1,39.0,88,60,36,0.00,40.00,5,2,14,0.01
2012-7-18,76.0,62.7,33.0,46.0,41.5,30.0,89,50,29,0.00,40.00,4,2,10,0.00
2012-7-19,81.0,61.1,34.0,49.0,41.2,31.0,87,53,26,0.00,40.00,5,2,9,0.00
2012-7-20,81.0,59.7,36.0,46.0,41.0,33.0,88,56,22,0.00,40.00,5,2,20,0.00
2012-7-21,79.0,61.5,38.0,46.0,41.0,33.0,84,52,26,0.00,40.00,5,2,16,0.00
2012-7-22,60.0,54.2,48.0,55.0,49.2,39.0,94,83,68,0.00,40.00,2,1,7,0.30
2012-7-23,59.0,53.7,47.0,52.0,47.7,45.0,94,81,62,0.00,40.00,3,1,9,0.03
2012-7-24,57.0,52.0,47.0,50.0,47.8,45.0,94,86,73,0.00,40.00,2,1,6,0.22
2012-7-25,74.0,59.2,48.0,49.0,47.5,42.0,94,69,40,0.00,40.00,4,1,11,0.01
2012-7-26,77.0,58.9,34.0,51.0,43.3,32.0,92,61,35,0.00,40.00,4,1,9,0.00
2012-7-27,81.0,62.5,41.0,52.0,45.1,37.0,87,58,33,0.00,40.00,4,2,11,0.00
2012-7-28,66.0,58.5,53.0,50.0,48.2,45.0,88,70,53,0.00,40.00,4,2,9,0.01
2012-7-29,67.0,58.4,50.0,45.0,43.6,41.0,82,60,43,0.00,40.00,4,2,9,0.01
2012-7-30,65.0,55.7,47.0,44.0,39.8,35.0,80,58,35,0.00,40.00,4,1,11,0.00
2012-7-31,72.0,56.1,41.0,42.0,39.8,37.0,86,58,31,0.00,40.00,4,1,9,0.00
2012-8-1,64.0,49.4,29.0,48.0,40.7,26.0,93,74,44,0.00,40.00,2,1,9,0.06
2012-8-2,61.0,55.8,49.0,49.0,41.5,36.0,89,60,49,0.00,40.00,5,3,16,0.08
2012-8-3,64.0,51.8,42.0,44.0,40.6,36.0,91,69,39,0.00,40.00,3,1,9,0.01
2012-8-4,64.0,49.5,29.0,45.0,37.3,27.0,92,67,38,0.00,40.00,3,1,7,0.01
2012-8-5,62.0,50.7,43.0,47.0,42.6,38.0,94,75,49,0.00,40.00,3,1,6,0.01
2012-8-6,67.0,52.4,42.0,50.0,45.5,39.0,93,79,54,0.00,40.00,3,1,6,0.08
2012-8-7,67.0,54.5,41.0,51.0,44.7,39.0,93,72,45,0.00,40.00,4,1,8,0.01
2012-8-8,62.0,52.2,43.0,51.0,46.8,41.0,92,83,65,0.00,40.00,2,1,5,0.10
2012-8-9,56.0,52.1,44.0,50.0,47.3,42.0,93,84,66,0.00,40.00,4,1,7,0.07
2012-8-10,70.0,55.5,39.0,49.0,43.0,37.0,94,67,38,0.00,40.00,4,1,13,0.03
2012-8-11,73.0,56.0,32.0,52.0,43.5,30.0,93,67,43,0.00,40.00,3,1,8,0.00
2012-8-12,73.0,53.9,33.0,57.0,44.4,31.0,94,74,37,0.00,40.00,3,1,9,0.07
2012-8-13,74.0,57.9,43.0,53.0,46.7,41.0,95,70,39,0.00,40.00,3,1,8,0.01
2012-8-14,80.0,56.7,33.0,47.0,40.1,31.0,92,61,20,0.00,40.00,4,2,13,0.00
2012-8-15,76.0,55.3,32.0,44.0,38.1,29.0,89,58,29,0.00,40.00,5,2,9,0.00
2012-8-16,72.0,58.6,47.0,46.0,41.0,36.0,83,56,29,0.00,40.00,5,2,15,0.00
2012-8-17,70.0,55.9,44.0,42.0,38.9,34.0,82,57,26,0.00,40.00,4,2,10,0.00
2012-8-18,70.0,53.2,31.0,43.0,38.0,28.0,89,60,32,0.00,40.00,4,2,10,0.00
2012-8-19,65.0,53.6,40.0,45.0,40.8,35.0,86,65,40,0.00,40.00,5,2,10,0.00
2012-8-20,63.0,48.4,35.0,46.0,38.8,32.0,89,71,42,0.00,40.00,2,1,4,0.00
2012-8-21,66.0,53.5,40.0,46.0,42.6,36.0,94,69,43,0.00,40.00,5,1,11,0.01
2012-8-22,73.0,54.8,29.0,44.0,37.9,26.0,91,59,28,0.00,40.00,4,2,9,0.01
2012-8-23,61.0,46.6,27.0,50.0,38.7,24.0,94,76,49,0.00,40.00,3,1,9,0.18
2012-8-24,60.0,52.2,47.0,49.0,46.0,42.0,95,81,57,0.00,40.00,3,1,7,0.18
2012-8-25,66.0,52.1,41.0,49.0,44.4,36.0,95,78,43,0.00,40.00,3,1,7,0.09
2012-8-26,58.0,44.8,28.0,48.0,39.1,27.0,94,82,56,0.00,40.00,5,1,12,0.01
2012-8-27,51.0,47.9,46.0,48.0,45.9,44.0,95,93,90,0.00,40.00,3,1,6,0.79
2012-8-28,59.0,48.9,38.0,45.0,30.6,21.0,93,56,24,0.00,40.00,11,5,21,0.01
2012-8-29,67.0,47.1,26.0,37.0,26.9,19.0,87,52,22,0.00,40.00,7,2,17,0.00
2012-8-30,68.0,48.4,25.0,43.0,30.9,22.0,91,57,27,0.00,40.00,4,2,9,0.00
2012-8-31,65.0,53.9,45.0,47.0,36.9,30.0,92,55,35,0.00,40.00,4,2,9,0.03
2012-9-1,54.0,48.0,44.0,47.0,44.2,35.0,95,87,62,0.00,40.00,4,1,10,0.64
2012-9-2,62.0,50.1,42.0,40.0,35.9,31.0,89,61,33,0.00,40.00,7,3,14,0.01
2012-9-3,59.0,48.2,42.0,47.0,40.9,37.0,93,77,50,0.00,40.00,7,1,15,0.11
2012-9-4,59.0,49.5,32.0,44.0,37.3,30.0,94,67,38,0.00,40.00,5,2,11,0.11
2012-9-5,64.0,54.6,48.0,38.0,33.3,29.0,68,46,28,0.00,40.00,12,6,29,0.00
2012-9-6,54.0,49.2,43.0,33.0,31.0,29.0,66,50,40,0.00,40.00,6,3,15,0.00
2012-9-7,52.0,43.6,37.0,39.0,35.0,30.0,90,73,52,0.00,40.00,4,1,8,0.01
2012-9-8,46.0,40.8,36.0,39.0,36.7,34.0,94,86,75,0.00,40.00,4,1,9,0.05
2012-9-9,54.0,42.8,35.0,34.0,28.8,19.0,86,61,28,0.00,40.00,7,2,17,0.01
2012-9-10,56.0,40.2,24.0,28.0,24.1,20.0,88,57,24,0.00,40.00,5,2,11,0.00
2012-9-11,57.0,38.3,20.0,29.0,22.8,17.0,88,59,24,0.00,40.00,5,1,11,0.00
2012-9-12,47.0,39.5,28.0,38.0,30.9,22.0,88,72,54,0.00,40.00,6,1,14,0.00
2012-9-13,61.0,43.9,29.0,39.0,34.7,24.0,92,73,36,0.00,40.00,5,1,12,0.00
2012-9-14,49.0,39.2,26.0,38.0,31.3,24.0,91,75,53,0.00,40.00,4,1,11,0.00
2012-9-15,51.0,45.3,37.0,38.0,34.1,32.0,84,66,51,0.00,40.00,5,2,11,0.00
2012-9-16,58.0,48.8,43.0,47.0,38.7,34.0,87,69,56,0.00,40.00,8,4,20,0.31
2012-9-17,58.0,46.5,31.0,36.0,31.0,25.0,92,58,36,0.00,40.00,8,4,19,0.22
2012-9-18,49.0,41.8,29.0,33.0,28.7,24.0,82,61,47,0.00,40.00,6,3,14,0.00
2012-9-19,65.0,49.7,37.0,46.0,37.4,31.0,93,67,28,0.00,40.00,7,2,18,0.05
2012-9-20,74.0,60.1,53.0,56.0,49.2,40.0,92,70,39,0.00,40.00,7,3,14,0.31
2012-9-21,60.0,54.0,44.0,51.0,46.6,40.0,94,78,48,0.00,40.00,5,2,13,0.06
2012-9-22,64.0,48.8,35.0,48.0,42.0,33.0,94,79,46,0.00,40.00,2,1,10,0.01
2012-9-23,61.0,50.1,39.0,41.0,35.8,34.0,84,60,38,0.00,40.00,6,3,19,0.00
2012-9-24,58.0,45.0,36.0,41.0,36.3,30.0,92,73,46,0.00,40.00,2,1,9,0.01
2012-9-25,53.0,41.3,28.0,40.0,31.9,25.0,90,71,43,0.00,40.00,3,1,7,0.01
2012-9-26,53.0,42.7,33.0,34.0,30.6,27.0,84,63,36,0.00,40.00,4,2,13,0.00
2012-9-27,53.0,42.3,30.0,36.0,30.6,23.0,92,65,40,0.00,40.00,9,4,19,0.01
2012-9-28,54.0,43.3,33.0,32.0,28.5,23.0,82,58,31,0.00,40.00,6,3,15,0.00
2012-9-29,52.0,38.1,28.0,30.0,24.5,19.0,84,60,34,0.00,40.00,7,2,19,0.00
2012-9-30,42.0,32.1,20.0,30.0,22.9,16.0,92,70,47,0.00,40.00,3,1,9,0.00
2012-10-1,47.0,34.0,23.0,29.0,26.6,19.0,93,77,41,0.00,40.00,2,1,6,0.12
2012-10-2,39.0,27.1,13.0,30.0,20.2,10.0,90,76,50,0.00,40.00,2,0,7,0.10
2012-10-3,47.0,37.2,30.0,36.0,31.0,27.0,92,80,56,0.00,40.00,2,0,4,0.02
2012-10-4,49.0,42.5,35.0,44.0,39.3,33.0,94,89,81,0.00,40.00,3,1,8,0.04
2012-10-5,65.0,53.2,48.0,49.0,44.0,34.0,94,74,39,0.00,40.00,9,3,19,0.06
2012-10-6,60.0,51.1,42.0,43.0,36.2,30.0,87,59,37,0.00,40.00,9,4,21,0.02
2012-10-7,45.0,40.8,35.0,43.0,38.2,32.0,94,90,82,0.00,40.00,1,0,4,0.32
2012-10-8,60.0,42.4,29.0,47.0,38.7,27.0,95,88,62,0.00,40.00,2,1,5,0.04
2012-10-9,48.0,40.0,29.0,42.0,37.5,27.0,95,90,78,0.00,40.00,2,1,5,0.00
2012-10-10,41.0,36.0,31.0,38.0,32.8,27.0,93,88,73,0.00,40.00,4,1,11,0.04
2012-10-11,41.0,27.9,14.0,27.0,20.2,11.0,91,75,44,0.00,40.00,4,2,10,0.01
2012-10-12,34.0,23.8,13.0,17.0,13.5,9.0,87,66,41,0.00,40.00,3,2,8,0.00
2012-10-13,40.0,26.6,14.0,24.0,19.7,10.0,89,76,49,0.00,40.00,3,1,6,0.05
2012-10-14,34.0,23.4,13.0,21.0,17.7,10.0,90,79,57,0.00,40.00,2,0,5,0.01
2012-10-15,48.0,30.1,21.0,31.0,24.5,19.0,91,81,46,0.00,40.00,4,1,9,0.10
2012-10-16,42.0,31.0,24.0,31.0,27.3,20.0,94,87,65,0.00,40.00,3,1,12,0.10
2012-10-17,29.0,20.3,4.0,20.0,13.9,0.0,88,77,50,0.00,40.00,4,1,12,0.01
2012-10-18,37.0,22.7,4.0,16.0,13.1,0.0,88,69,40,0.00,40.00,3,1,6,0.00
2012-10-19,31.0,17.7,-3.0,11.0,6.3,-8.0,80,63,42,0.00,40.00,4,2,9,0.00
2012-10-20,31.0,20.5,-7.0,8.0,0.8,-12.0,82,46,26,0.00,40.00,14,7,31,0.00
2012-10-21,28.0,12.1,-6.0,5.0,0.2,-13.0,79,60,36,0.00,40.00,7,2,21,0.00
2012-10-22,23.0,4.7,-16.0,5.0,-5.0,-22.0,79,65,46,0.00,40.00,3,1,6,0.00
2012-10-23,23.0,6.0,-16.0,5.0,-3.8,-22.0,78,65,46,0.00,40.00,2,1,7,0.00
2012-10-24,25.0,4.1,-16.0,6.0,-5.5,-22.0,78,65,41,0.00,40.00,2,1,11,0.00
2012-10-25,24.0,3.5,-16.0,5.0,-5.8,-22.0,79,66,44,0.00,40.00,1,1,6,0.00
2012-10-26,21.0,1.6,-16.0,5.0,-6.7,-22.0,79,69,49,0.00,40.00,2,1,6,0.00
2012-10-27,19.0,4.1,-18.0,5.0,-5.1,-24.0,78,65,53,0.00,40.00,1,1,4,0.00
2012-10-28,21.0,5.7,-15.0,5.0,-3.9,-21.0,79,65,49,0.00,40.00,2,1,4,0.00
2012-10-29,22.0,10.8,-13.0,10.0,3.6,-19.0,80,73,57,0.00,40.00,1,0,8,0.00
2012-10-30,21.0,17.0,14.0,16.0,12.4,10.0,85,82,78,0.00,40.00,6,2,15,0.00
2012-10-31,19.0,11.7,-1.0,11.0,5.7,-6.0,85,77,63,0.00,40.00,4,2,11,0.00
2012-11-1,15.0,1.2,-10.0,4.0,-4.7,-15.0,81,75,61,0.00,40.00,2,0,6,0.00
2012-11-2,15.0,7.0,-1.0,7.0,0.7,-6.0,83,76,65,0.00,40.00,2,0,4,0.00
2012-11-3,10.0,0.0,-12.0,4.0,-5.3,-18.0,81,77,74,0.00,40.00,1,0,9,0.00
2012-11-4,20.0,8.1,-11.0,8.0,0.6,-16.0,82,71,58,0.00,40.00,2,1,5,0.00
2012-11-5,13.0,8.3,-10.0,9.0,3.8,-15.0,85,82,76,0.00,40.00,1,0,3,0.00
2012-11-6,18.0,10.2,3.0,10.0,5.5,-1.0,85,81,67,0.00,40.00,1,0,4,0.00
2012-11-7,10.0,-1.4,-22.0,1.0,-7.2,-28.0,82,76,67,0.00,40.00,1,0,4,0.00
2012-11-8,1.0,-12.1,-27.0,-6.0,-18.8,-34.0,75,71,67,0.00,40.00,1,0,3,0.00
2012-11-9,18.0,11.5,-16.0,13.0,6.5,-22.0,85,80,74,0.00,40.00,1,0,4,0.00
2012-11-10,25.0,20.2,18.0,21.0,16.5,15.0,87,85,81,0.00,40.00,2,0,4,0.00
2012-11-11,26.0,20.4,15.0,19.0,16.6,12.0,89,85,68,0.00,40.00,1,0,3,0.00
2012-11-12,26.0,22.9,21.0,23.0,20.2,18.0,90,89,86,0.00,40.00,1,0,4,0.00
2012-11-13,22.0,19.1,15.0,19.0,15.6,12.0,89,86,78,0.00,40.00,1,0,4,0.00
2012-11-14,28.0,20.6,17.0,23.0,17.2,14.0,90,86,79,0.00,40.00,1,0,4,0.00
2012-11-15,17.0,13.1,6.0,14.0,9.4,2.0,88,85,82,0.00,40.00,1,0,4,0.00
2012-11-16,11.0,6.5,-1.0,6.0,2.1,-6.0,84,81,78,0.00,40.00,1,0,4,0.00
2012-11-17,6.0,2.1,-16.0,0.0,-3.2,-22.0,81,78,72,0.00,40.00,2,1,6,0.00
2012-11-18,-10.0,-15.8,-26.0,-16.0,-21.9,-32.0,75,73,70,0.00,40.00,0,0,1,0.00
2012-11-19,-15.0,-24.2,-30.0,-21.0,-30.7,-37.0,72,70,68,0.00,40.00,0,0,1,0.00
2012-11-20,-19.0,-22.5,-31.0,-25.0,-41.0,-99.9,71,69,67,0.00,40.00,0,0,1,0.00
2012-11-21,-19.0,-15.7,-35.0,-26.0,-62.2,-99.9,70,67,65,0.00,40.00,0,0,1,0.00
2012-11-22,-13.0,-16.3,-34.0,-20.0,-50.4,-99.9,73,68,65,0.00,40.00,0,0,4,0.00
2012-11-30,-200.0,0.0,200.0,-99.9,-99.9,-99.9,67,66,66,0.00,40.00,1,0,29,0.00
2012-12-5,-200.0,0.0,200.0,-99.9,-99.9,-99.9,66,66,66,0.00,40.00,0,0,1,0.00